This is the latest recevied weather packets stored in our database for station/object KC5EZZ-2. If no packets are shown the sender has not sent any weather packets the latest 10 day(s).
| Time | Temp. | Humidity | Pressure | Rain* | Wind** | Luminosity | Snow |
|---|---|---|---|---|---|---|---|
| 1777976054 | 20.56° C | - | - | 0 mm | 3.13 m/s, 191° | - | - |
| 1777976005 | 20.56° C | - | - | 0 mm | 3.13 m/s, 191° | - | - |
| 1777975706 | 20.56° C | - | - | 0 mm | 4.02 m/s, 170° | - | - |
| 1777975406 | 20.56° C | - | - | 0 mm | 4.02 m/s, 172° | - | - |
| 1777975104 | 20.56° C | - | - | 0 mm | 4.47 m/s, 191° | - | - |
| 1777974804 | 20.56° C | - | - | 0 mm | 4.47 m/s, 194° | - | - |
| 1777974505 | 20.56° C | - | - | 0 mm | 4.02 m/s, 203° | - | - |
| 1777974241 | 20.56° C | - | - | 0 mm | 4.92 m/s, 187° | - | - |
| 1777974203 | 20.56° C | - | - | 0 mm | 4.92 m/s, 187° | - | - |
| 1777973604 | 20.56° C | - | - | 0 mm | 4.02 m/s, 195° | - | - |
| 1777973301 | 20.56° C | - | - | 0 mm | 3.58 m/s, 176° | - | - |
| 1777973002 | 20.56° C | - | - | 0 mm | 4.47 m/s, 184° | - | - |
| 1777972703 | 21.11° C | - | - | 0 mm | 4.47 m/s, 204° | - | - |
| 1777972399 | 20.56° C | - | - | 0 mm | 4.02 m/s, 205° | - | - |
| 1777972100 | 21.11° C | - | - | 0 mm | 4.92 m/s, 197° | - | - |
| 1777971801 | 20.56° C | - | - | 0 mm | 4.02 m/s, 194° | - | - |
| 1777971497 | 20.56° C | - | - | 0 mm | 4.02 m/s, 198° | - | - |
| 1777971198 | 20.56° C | - | - | 0 mm | 5.36 m/s, 201° | - | - |
| 1777970898 | 20.56° C | - | - | 0 mm | 3.58 m/s, 219° | - | - |
| 1777970596 | 21.11° C | - | - | 0 mm | 3.58 m/s, 205° | - | - |
| 1777970297 | 21.11° C | - | - | 0 mm | 5.36 m/s, 176° | - | - |
| 1777969997 | 21.11° C | - | - | 0 mm | 4.92 m/s, 211° | - | - |
| 1777969695 | 21.11° C | - | - | 0 mm | 4.02 m/s, 207° | - | - |
| 1777969430 | 21.11° C | - | - | 0 mm | 4.02 m/s, 194° | - | - |
| 1777969396 | 21.11° C | - | - | 0 mm | 4.02 m/s, 194° | - | - |
* Rain latest hour (hover to see other rain measurements)
** Current wind speed in m/s (hover to see current wind gust speed)